Location: Moy Burn
(57.3833°N, 4.0667°W)
Time: 08:48:56
(UTC+00:00)

ERS-1 Rocket - Pass Details

Date: 08 August 2020
Orbit: 753 x 757 km, 98.5° (Epoch: 18 September)

Event Time Altitude Azimuth Distance (km) Brightness Sun altitude
Exits shadow 21:36:07 - 166° (SSE) 2,389 5.0 -9.2°
Reaches altitude 10° 21:36:23 10° 166° (SSE) 2,281 4.9 -9.2°
Maximum altitude 21:41:25 81° 253° (WSW) 773 3.1 -9.6°
Drops below altitude 10° 21:46:29 10° 342° (NNW) 2,295 6.8 -10.1°
Sets 21:48:48 0° 343° (NNW) 3,224 7.7 -10.2°
